NULL Weather Reports


Display with metric or nautical units.
time (UTC)temp
F
wind
direction
speed
MPH
gust
MPH
rain 1hr
in
rain 24hr
in
rain mn
in
humidity
%
barometer
mb
20260903201558 95 173 9.0 17.0 0.00 0.00 0.00 45 1008.6
20260903201548 79 153 0.0 0.0 0.00 0.00 0.00 67 1012.2
20260903200054 95 206 7.0 20.0 0.00 0.00 0.00 46 1008.8
20260903200047 80 160 0.0 1.0 0.00 0.00 0.00 65 1012.4
20260903194552 95 157 9.0 17.0 0.00 0.00 0.00 46 1008.9
20260903194547 80 153 0.0 0.0 0.00 0.00 0.00 64 1012.5
20260903193051 95 210 6.0 15.0 0.00 0.00 0.00 47 1009.0
20260903193040 79 155 0.0 0.0 0.00 0.00 0.00 65 1012.7
20260903191547 95 191 7.0 16.0 0.00 0.00 0.00 48 1009.1
20260903191537 78 114 0.0 0.0 0.00 0.00 0.00 66 1013.1
20260903190043 94 201 9.0 17.0 0.00 0.00 0.00 47 1009.2
20260903190036 78 182 0.0 0.0 0.00 0.00 0.00 69 1013.3
20260903184539 94 209 11.0 16.0 0.00 0.00 0.00 49 1009.3
20260903184536 77 142 0.0 0.0 0.00 0.00 0.00 69 1013.6
20260903183038 93 203 9.0 20.0 0.00 0.00 0.00 49 1009.4
20260903183034 78 159 0.0 0.0 0.00 0.00 0.00 68 1013.7
20260903181533 77 196 0.0 0.0 0.00 0.00 0.00 70 1013.7
20260903181531 93 193 7.0 23.0 0.00 0.00 0.00 49 1009.6
20260903180034 92 204 12.0 19.0 0.00 0.00 0.00 50 1009.6
20260903180032 76 148 0.0 0.0 0.00 0.00 0.00 72 1013.7
20260903174525 92 108 7.0 20.0 0.00 0.00 0.00 51 1010.0
20260903174523 74 138 0.0 0.0 0.00 0.00 0.00 74 1013.8
20260903173022 92 117 8.0 16.0 0.00 0.00 0.00 52 1010.0
20260903173020 74 136 0.0 0.0 0.00 0.00 0.00 73 1013.9
20260903171526 74 144 0.0 0.0 0.00 0.00 0.00 73 1014.1
20260903171519 91 223 7.0 18.0 0.00 0.00 0.00 53 1010.1
20260903170032 74 128 0.0 0.0 0.00 0.00 0.00 73 1014.0
20260903170016 91 195 8.0 18.0 0.00 0.00 0.00 53 1010.3
20260903164520 73 117 0.0 0.0 0.00 0.00 0.00 74 1014.1
20260903164513 90 181 9.0 18.0 0.00 0.00 0.00 54 1010.6
20260903163020 73 109 0.0 0.0 0.00 0.00 0.00 76 1013.9
20260903163010 89 191 7.0 18.0 0.00 0.00 0.00 55 1010.6
20260903161508 72 95 0.0 0.0 0.00 0.00 0.00 78 1013.9
20260903160006 71 97 0.0 0.0 0.00 0.00 0.00 78 1013.9
20260903154504 70 5 0.0 0.0 0.00 0.00 0.00 79 1013.9
20260903154502 87 224 8.0 17.0 0.00 0.00 0.00 59 1010.7
20260903153001 70 78 0.0 0.0 0.00 0.00 0.00 79 1013.8
20260903151558 69 130 0.0 0.0 0.00 0.00 0.00 78 1013.7
20260903150109 68 130 0.0 0.0 0.00 0.00 0.00 79 1013.7
20260903150057 85 168 8.0 13.0 0.00 0.00 0.00 64 1010.9
20260903144601 67 229 0.0 0.0 0.00 0.00 0.00 79 1013.7
20260903144553 84 191 10.0 18.0 0.00 0.00 0.00 65 1010.9
20260903143054 66 178 0.0 0.0 0.00 0.00 0.00 80 1013.6
20260903143051 83 205 8.0 15.0 0.00 0.00 0.00 66 1011.0
20260903141552 65 178 0.0 0.0 0.00 0.00 0.00 81 1013.4
20260903141547 82 179 7.0 15.0 0.00 0.00 0.00 67 1011.0
20260903140053 64 178 0.0 0.0 0.00 0.00 0.00 82 1013.2
20260903140046 82 79 9.0 14.0 0.00 0.00 0.00 68 1010.9
20260903134603 64 178 0.0 0.0 0.00 0.00 0.00 81 1013.2
20260903134542 81 204 8.0 15.0 0.00 0.00 0.00 69 1010.9
20260903133050 64 178 0.0 0.0 0.00 0.00 0.00 81 1013.1
20260903133048 80 201 3.0 13.0 0.00 0.00 0.00 71 1010.8
20260903131550 64 178 0.0 0.0 0.00 0.00 0.00 80 1013.0
20260903131536 79 212 5.0 10.0 0.00 0.00 0.00 72 1011.0
20260903130053 64 178 0.0 0.0 0.00 0.00 0.00 80 1013.1
20260903130033 78 189 2.0 8.0 0.00 0.00 0.00 73 1010.9
20260903124555 64 178 0.0 0.0 0.00 0.00 0.00 80 1013.1
20260903124534 78 359 3.0 6.0 0.00 0.00 0.00 74 1010.8
20260903123047 64 178 0.0 0.0 0.00 0.00 0.00 81 1013.0
20260903123034 77 218 2.0 8.0 0.00 0.00 0.00 74 1010.7
20260903121546 64 178 0.0 0.0 0.00 0.00 0.00 82 1013.1
20260903121540 77 212 2.0 7.0 0.00 0.00 0.00 73 1010.7
20260903120053 64 178 0.0 0.0 0.00 0.00 0.00 82 1013.2
20260903120041 77 359 4.0 8.0 0.00 0.00 0.00 73 1010.4
20260903114543 64 178 0.0 0.0 0.00 0.00 0.00 82 1013.2
20260903114528 78 359 4.0 8.0 0.00 0.00 0.00 72 1010.3
20260903113045 64 178 0.0 0.0 0.00 0.00 0.00 83 1013.4
20260903113027 78 359 4.0 10.0 0.00 0.00 0.00 71 1010.1
20260903111538 65 178 0.0 0.0 0.00 0.00 0.00 83 1013.4
20260903111526 78 359 5.0 11.0 0.00 0.00 0.00 71 1010.1
20260903110039 65 178 0.0 0.0 0.00 0.00 0.00 83 1013.5
20260903110025 78 359 6.0 10.0 0.00 0.00 0.00 71 1010.0
20260903104535 65 178 0.0 0.0 0.00 0.00 0.00 83 1013.5
20260903104525 78 149 5.0 11.0 0.00 0.00 0.00 71 1010.0
20260903103035 66 178 0.0 0.0 0.00 0.00 0.00 83 1013.6
20260903103023 77 208 4.0 8.0 0.00 0.00 0.00 74 1009.9
20260903101536 66 178 0.0 0.0 0.00 0.00 0.00 83 1013.6
20260903101519 74 209 2.0 6.0 0.00 0.00 0.00 80 1009.9
20260903100035 66 178 0.0 0.0 0.00 0.00 0.00 83 1013.7
20260903100018 73 175 0.0 1.0 0.00 0.00 0.00 84 1009.8
20260903094531 65 173 0.0 0.0 0.00 0.00 0.00 84 1013.7
20260903094518 73 176 0.0 0.0 0.00 0.00 0.00 84 1009.8
20260903093029 66 173 0.0 0.0 0.00 0.00 0.00 83 1013.8
20260903093017 73 176 0.0 0.0 0.00 0.00 0.00 84 1009.9
20260903091527 66 173 0.0 0.0 0.00 0.00 0.00 83 1013.8
20260903091518 73 177 0.0 1.0 0.00 0.00 0.00 84 1009.9
20260903090027 66 173 0.0 0.0 0.00 0.00 0.00 82 1013.9
20260903090015 73 176 0.0 0.0 0.00 0.00 0.00 84 1010.0
20260903084538 66 173 0.0 0.0 0.00 0.00 0.00 82 1014.1
20260903084513 73 177 0.0 2.0 0.00 0.00 0.00 84 1010.0
20260903083024 66 173 0.0 0.0 0.00 0.00 0.00 82 1014.1
20260903083012 74 215 0.0 3.0 0.00 0.00 0.00 83 1010.1
20260903081520 66 173 0.0 0.0 0.00 0.00 0.00 81 1014.2
20260903081511 74 94 0.0 2.0 0.00 0.00 0.00 83 1009.9
20260903080019 67 173 0.0 0.0 0.00 0.00 0.00 81 1014.3
20260903080009 74 94 0.0 0.0 0.00 0.00 0.00 83 1009.8
20260903074516 67 173 0.0 0.0 0.00 0.00 0.00 80 1014.3
20260903074511 75 93 0.0 0.0 0.00 0.00 0.00 82 1009.8
20260903073014 67 173 0.0 0.0 0.00 0.00 0.00 80 1014.3
20260903073008 75 92 0.0 0.0 0.00 0.00 0.00 82 1009.9
20260903071513 67 173 0.0 0.0 0.00 0.00 0.00 80 1014.2
20260903071504 75 92 0.0 0.0 0.00 0.00 0.00 82 1009.9
20260903070013 75 92 0.0 0.0 0.00 0.00 0.00 83 1010.0
20260903070010 68 173 0.0 0.0 0.00 0.00 0.00 79 1014.3
20260903064510 68 173 0.0 0.0 0.00 0.00 0.00 78 1014.4
20260903064502 76 99 0.0 0.0 0.00 0.00 0.00 83 1010.1
20260903063109 76 89 0.0 0.0 0.00 0.00 0.00 84 1009.9
20260903063011 68 173 0.0 0.0 0.00 0.00 0.00 78 1014.2
20260903061608 76 89 0.0 0.0 0.00 0.00 0.00 84 1009.9
20260903061508 68 173 0.0 0.0 0.00 0.00 0.00 78 1014.2
20260903060059 76 88 0.0 0.0 0.00 0.00 0.00 84 1010.2
20260903060009 69 173 0.0 0.0 0.00 0.00 0.00 77 1014.2
20260903054602 76 88 0.0 0.0 0.00 0.00 0.00 84 1009.9
20260903054510 69 174 0.0 0.0 0.00 0.00 0.00 77 1014.1
20260903053056 77 88 0.0 0.0 0.00 0.00 0.00 84 1009.9
20260903053007 69 174 0.0 0.0 0.00 0.00 0.00 77 1014.2
20260903051554 77 88 0.0 0.0 0.00 0.00 0.00 84 1009.9
20260903051507 69 175 0.0 0.0 0.00 0.00 0.00 75 1014.2
20260903050050 77 88 0.0 0.0 0.00 0.00 0.00 83 1009.9
20260903050009 69 175 0.0 0.0 0.00 0.00 0.00 74 1014.1
20260903044555 77 88 0.0 0.0 0.00 0.00 0.00 80 1009.8
20260903044506 70 175 0.0 0.0 0.00 0.00 0.00 73 1013.9
20260903043050 78 88 0.0 0.0 0.00 0.00 0.00 78 1009.8
20260903043012 70 175 0.0 0.0 0.00 0.00 0.00 72 1013.8
20260903041605 78 88 0.0 0.0 0.00 0.00 0.00 77 1009.8
20260903041506 71 175 0.0 0.0 0.00 0.00 0.00 72 1013.9
20260903040050 79 88 0.0 0.0 0.00 0.00 0.00 79 1009.8
20260903040008 71 175 0.0 0.0 0.00 0.00 0.00 71 1013.7
20260903034548 79 88 0.0 0.0 0.00 0.00 0.00 78 1009.9
20260903034506 72 175 0.0 0.0 0.00 0.00 0.00 70 1013.5
20260903033049 80 88 0.0 0.0 0.00 0.00 0.00 78 1009.9
20260903033004 72 175 0.0 0.0 0.00 0.00 0.00 67 1013.4
20260903031547 80 359 0.0 0.0 0.00 0.00 0.00 76 1009.8
20260903031503 72 175 0.0 0.0 0.00 0.00 0.00 65 1013.2
20260903030047 81 359 0.0 0.0 0.00 0.00 0.00 75 1009.8
20260903030003 73 174 0.0 0.0 0.00 0.00 0.00 65 1013.2
20260903024546 81 359 0.0 0.0 0.00 0.00 0.00 74 1009.7
20260903024504 73 173 0.0 0.0 0.00 0.00 0.00 65 1013.2
20260903023046 82 359 0.0 0.0 0.00 0.00 0.00 72 1009.8
20260903023002 74 171 0.0 0.0 0.00 0.00 0.00 66 1013.2
20260903021545 83 359 0.0 1.0 0.00 0.00 0.00 70 1009.7
20260903021506 75 171 0.0 0.0 0.00 0.00 0.00 63 1013.1
20260903020051 84 359 0.0 0.0 0.00 0.00 0.00 68 1009.5
20260903020001 76 156 0.0 0.0 0.00 0.00 0.00 63 1013.0
20260903014605 85 359 0.0 0.0 0.00 0.00 0.00 66 1009.3
20260903014501 76 140 0.0 0.0 0.00 0.00 0.00 64 1012.8
20260903013100 76 144 0.0 0.0 0.00 0.00 0.00 69 1012.7
20260903013058 86 128 0.0 0.0 0.00 0.00 0.00 62 1009.2
20260903011610 89 128 0.0 0.0 0.00 0.00 0.00 58 1009.1
20260903011604 76 151 0.0 0.0 0.00 0.00 0.00 69 1012.7
20260903010058 76 148 0.0 0.0 0.00 0.00 0.00 66 1012.8
20260903004557 77 151 0.0 0.0 0.00 0.00 0.00 63 1012.8
20260903004543 92 128 0.0 2.0 0.00 0.00 0.00 50 1008.8
20260903003055 77 146 0.0 0.0 0.00 0.00 0.00 63 1012.8
20260903001558 78 161 0.0 0.0 0.00 0.00 0.00 63 1012.8
20260903001553 95 159 1.0 5.0 0.00 0.00 0.00 46 1008.8
20260903000057 78 150 0.0 0.0 0.00 0.00 0.00 61 1012.8
20260903000046 96 157 1.0 6.0 0.00 0.00 0.00 44 1008.8
20260902234555 78 165 0.0 1.0 0.00 0.00 0.00 58 1012.8
20260902234543 96 183 3.0 8.0 0.00 0.00 0.00 42 1008.9
20260902233052 78 175 0.0 0.0 0.00 0.00 0.00 57 1013.0
20260902233039 97 131 3.0 11.0 0.00 0.00 0.00 41 1009.0
20260902231549 79 198 0.0 0.0 0.00 0.00 0.00 55 1013.1
20260902231545 97 131 5.0 10.0 0.00 0.00 0.00 40 1009.0
20260902230047 97 168 6.0 11.0 0.00 0.00 0.00 40 1009.2
20260902224545 79 160 0.0 0.0 0.00 0.00 0.00 59 1013.3
20260902224537 97 215 5.0 10.0 0.00 0.00 0.00 40 1009.1
20260902223044 79 216 0.0 0.0 0.00 0.00 0.00 59 1013.6
20260902223039 98 202 6.0 12.0 0.00 0.00 0.00 39 1009.1
20260902221544 80 169 0.0 1.0 0.00 0.00 0.00 58 1013.8
20260902221531 98 220 6.0 11.0 0.00 0.00 0.00 39 1009.0
20260902220046 79 144 0.0 0.0 0.00 0.00 0.00 57 1014.0
20260902220033 98 191 10.0 15.0 0.00 0.00 0.00 38 1009.1
20260902214542 80 181 0.0 0.0 0.00 0.00 0.00 57 1014.2
20260902214524 98 190 6.0 14.0 0.00 0.00 0.00 40 1009.2
20260902213039 81 191 0.0 0.0 0.00 0.00 0.00 60 1014.2
20260902213018 98 195 8.0 15.0 0.00 0.00 0.00 38 1009.3
20260902211543 81 144 0.0 1.0 0.00 0.00 0.00 61 1014.3
20260902211515 98 77 9.0 18.0 0.00 0.00 0.00 38 1009.5
20260902210106 82 145 0.0 0.0 0.00 0.00 0.00 60 1014.4
20260902210009 98 189 4.0 17.0 0.00 0.00 0.00 38 1009.7
20260902204541 82 155 0.0 0.0 0.00 0.00 0.00 61 1014.5
20260902204505 98 158 6.0 17.0 0.00 0.00 0.00 40 1009.8
20260902203058 98 198 4.0 17.0 0.00 0.00 0.00 41 1010.0
20260902203036 81 158 0.0 0.0 0.00 0.00 0.00 61 1014.3